Regional Weather Roundup
Issued by NWS

Home | Current Version | Previous Version | Text Only | Print | Product List | Glossary Off
Versions: 1 2 3 4 5 6 7 8 9 10 11 12 13 14 15 16 17 18 19 20 21 22 23 24 25 26 27 28 29 30 31 32 33 34 35 36 37 38 39 40 41 42 43 44 45 46 47 48 49 50

077
ASUS43 KDTX 240510
RWRMI
MICHIGAN HOURLY REGIONAL WEATHER ROUNDUP
NATIONAL WEATHER SERVICE DETROIT/PONTIAC MI
100 AM EDT SUN SEP 24 2017

NOTE: "FAIR" INDICATES FEW OR NO CLOUDS BELOW 12,000 FEET WITH NO
SIGNIFICANT WEATHER AND/OR OBSTRUCTION TO VISIBILITY.

MIZ047>049-052>055-059>063-066>070-074>076-081>083-240600-
SOUTHEAST LOWER MICHIGAN

CITY           SKY/WX    TMP DP  RH WIND       PRES   REMARKS
ADRIAN         CLEAR     65  60  84 CALM      30.14S
ALMA           CLEAR     70  58  66 CALM      30.13S
ANN ARBOR      CLEAR     61  61 100 CALM      30.13S
BAD AXE        CLEAR     69  63  79 CALM      30.13S
CARO           CLEAR     65  63  94 CALM      30.12S
DETROIT CITY   CLEAR     72  63  73 CALM      30.13S
DETROIT        CLEAR     72  65  78 CALM      30.13F
FLINT          CLEAR     64  61  90 CALM      30.14R
GROSSE ILE     CLEAR     68  67  96 CALM      30.11F FOG
HILLSDALE      CLEAR     70  55  60 SE3       30.14S
HOWELL         CLEAR     67  62  82 CALM      30.15R

CITY           SKY/WX    TMP DP  RH WIND       PRES   REMARKS
JACKSON        CLEAR     68  60  75 CALM      30.14S
LAMBERTVILLE   CLEAR     65  62  92 CALM      30.13R FOG
LANSING        CLEAR     73  58  59 CALM      30.14R
LAPEER         FAIR      64  63  96 CALM      30.15S
MASON          CLEAR     67  62  83 E6        30.14S
MONROE         FOG       65  63  93 CALM      30.12S VSB 1/2
MT. CLEMENS    CLEAR     66  66 100 N3        30.12R
PONTIAC        CLEAR     67  63  87 CALM      30.14R
PORT HOPE        N/A     74  64  71 SW5       30.10R
PORT HURON     CLEAR     64  63  94 CALM      30.14S FOG
TRI CITIES     CLEAR     75  64  68 SW7       30.13R
MIDLAND        FAIR      72  63  73 CALM      30.11R
TROY           CLEAR     72  60  64 CALM      30.15S
SAGINAW HB     CLEAR     72  63  73 S3        30.11S
$$
MIZ043>046-050>051-056>058-064>065-071>073-077>080-240600-
SOUTHWEST LOWER MICHIGAN

CITY           SKY/WX    TMP DP  RH WIND       PRES   REMARKS
BATTLE CREEK   CLEAR     70  62  76 CALM      30.14R
BENTON HARBOR  CLEAR     69  64  84 E3        30.09S
BIG RAPIDS     CLEAR     65  63  91 CALM      30.12R FOG
COLDWATER      CLEAR     66  62  86 E3        30.13S
FREMONT        FAIR      66  66 100 CALM      30.10S
HOLLAND        CLEAR     68  64  87 SE5       30.11S
GRAND RAPIDS   CLEAR     69  62  78 SE3       30.12R
IONIA          FAIR      72  59  63 S6        30.12S
KALAMAZOO      CLEAR     69  61  75 CALM      30.12S
LUDINGTON      CLEAR     65  64  97 CALM      30.08R FOG
MARSHALL       CLEAR     65  64  98 CALM      30.13S
MUSKEGON       CLEAR     70  66  87 CALM      30.10R
SOUTH HAVEN    CLEAR     67  65  94 CALM      30.10S
$$
MIZ016>042-240600-
NORTHERN LOWER MICHIGAN

CITY           SKY/WX    TMP DP  RH WIND       PRES   REMARKS
ALPENA         CLEAR     67  67 100 SE3       30.10R
BELLAIRE       CLEAR     65  64  95 CALM      30.09R FOG
CADILLAC       CLEAR     67  63  86 CALM      30.12S FOG
CHARLEVOIX     CLEAR     69  65  87 E3        30.10S
FRANKFORT      CLEAR     65  65 100 CALM      30.08S
GAYLORD        CLEAR     65  63  93 CALM      30.13R
GRAYLING       CLEAR     63  61  91 CALM      30.13S
HARBOR SPRINGS CLEAR     67  65  94 CALM      30.08S
HOUGHTON LAKE  CLEAR     63  63 100 E3        30.13S FOG
MANISTEE       CLEAR     65  64  97 NE3       30.08R
OSCODA         CLEAR     70  65  86 W3        30.10S
PELLSTON       CLEAR     63  62  97 CALM      30.08S FOG
ROGERS CITY    CLEAR     73  67  81 CALM      30.10R
TRAVERSE CITY  CLEAR     71  65  81 CALM      30.07R
$$
MIZ007>008-015-240600-
EASTERN UPPER MICHIGAN

CITY           SKY/WX    TMP DP  RH WIND       PRES   REMARKS
KINROSS        CLEAR     68  65  90 VRB5      30.08S
MACKINAC ISLAN CLEAR     71  64  79 W3        30.08S
NEWBERRY       PTCLDY    69  68  97 S7        30.06S
S. S. MARIE    CLEAR     68  64  87 CALM      30.06S
MUNISING         N/A     73  68  84 S6        30.02S
$$
MIZ004>006-011>014-085-240600-
CENTRAL UPPER MICHIGAN

CITY           SKY/WX    TMP DP  RH WIND       PRES   REMARKS
MANISTIQUE     CLEAR     65  60  81 S3        30.05S
ESCANABA       PTCLDY    72  67  84 SW6       30.04S
MENOMINEE      PTCLDY    74  66  76 SW5       30.05S
SAWYER-GWINN   PTCLDY    69  65  88 S7        30.06S
$$
MIZ001>003-009>011-084-240600-
WESTERN UPPER MICHIGAN

CITY           SKY/WX    TMP DP  RH WIND       PRES   REMARKS
IRON MOUNTAIN  PTCLDY    73  65  75 S6        30.04S
HOUGHTON       CLOUDY    70  66  87 E5        30.00F
COPPER HARBOR    N/A     71  67  87 SW7       29.98F
IRONWOOD       CLOUDY    71  68  90 CALM      30.00S
$$

ABBREVIATIONS USED IN REMARKS
   TC - TEMPERATURE IN CELSIUS
  WCI - WIND CHILL INDEX
   HX - HEAT INDEX
  VSB - VISIBILITY





USA.gov is the U.S. government's official web portal to all federal, state and local government web resources and services.